Location: Mason Neck State Park
(38.6428°N, 77.1981°W)
Time: 01:54:28
(UTC-04:00)

ISS - Visible Passes

Search period start: 23 October 2014 00:00
Search period end: 02 November 2014 00:00
Orbit: 413 x 416 km, 51.6° (Epoch: 22 October)

Date Brightness Start Highest point End Pass type
(mag) Time Alt. Az. Time Alt. Az. Time Alt. Az.
23 Oct -1.4 18:53:26 10° NNW 18:55:47 18° NNE 18:58:03 10° ENE visible
23 Oct -1.0 20:29:29 10° NW 20:30:55 24° NW 20:30:55 24° NW visible
24 Oct -3.2 19:40:23 10° NW 19:43:41 56° NE 19:44:05 51° ENE visible
25 Oct -2.4 18:51:21 10° NW 18:54:26 33° NNE 18:57:22 11° E visible
25 Oct -0.9 20:28:12 10° WNW 20:30:15 23° WSW 20:30:15 23° WSW visible
26 Oct -2.4 19:38:41 10° WNW 19:41:55 48° SW 19:43:43 22° SSE visible
27 Oct -3.3 18:49:22 10° NW 18:52:42 88° NE 18:56:02 10° SE visible
28 Oct -0.3 19:37:37 10° W 19:39:47 16° SW 19:41:57 10° S visible
29 Oct -1.2 18:47:40 10° WNW 18:50:37 30° SW 18:53:34 10° SSE visible
31 Oct 0.4 18:47:35 10° WSW 18:48:10 10° SW 18:48:46 10° SW visible
